Location: eljas
(40.1958°N, 6.8661°W)
Time: 22:00:31
(UTC+01:00)

Amateur Radio Satellites - All Passes

Search period start: 20 January 2018 21:30
Search period end: 21 January 2018 21:30
Location: eljas, 40.1958°N, 6.8661°W

Satellite Date Start Highest point End Downlink Frequencies (MHz)
Time Altitude Azimuth
PCSat 20 Jan 21:31:08 21:35:51 31° 251° (WSW) 21:40:34 145.827
DELFI C3 20 Jan 21:50:05 21:53:48 43° 73° (ENE) 21:57:32 145.870
STRAND 1 20 Jan 21:56:40 22:01:10 32° 292° (WNW) 22:05:40 437.568
FO-29 20 Jan 22:10:53 22:16:00 58° 287° (WNW) 22:21:08 435.910
nSIGHT-1 20 Jan 22:15:36 22:18:44 69° 324° (NW) 22:21:54 .
AO-85 20 Jan 22:21:39 22:26:40 90° 16° (NNE) 22:31:58 145.980
ISS 20 Jan 22:26:48 22:30:03 81° 326° (NW) 22:33:19 437.550
TIGRISAT 20 Jan 22:33:29 22:37:31 28° 95° (E) 22:41:31 435.000
Max Valier Satellite 20 Jan 22:34:56 22:38:39 76° 258° (WSW) 22:42:25 145.860
UNISAT 6 20 Jan 22:48:19 22:52:49 43° 98° (E) 22:57:17 437.425
EO-88 20 Jan 22:54:52 22:58:29 65° 259° (W) 23:02:08 145.990 - 145.960
YUBILEINY 20 Jan 23:02:45 23:09:05 23° 80° (E) 23:15:24 435.215
PRISM 20 Jan 23:09:52 23:11:52 13° 92° (E) 23:13:51 437.425
DELFI C3 20 Jan 23:27:00 23:28:45 13° 269° (W) 23:30:30 145.870
ESTCUBE 1 20 Jan 23:29:52 23:33:55 33° 70° (ENE) 23:37:57 437.505/2401.250
nSIGHT-1 20 Jan 23:53:22 23:55:22 15° 343° (NNW) 23:57:23 .
AIST 2D 20 Jan 23:54:16 23:56:44 18° 94° (E) 23:59:11 435.315
ISS 21 Jan 00:04:41 00:06:57 17° 342° (NNW) 00:09:13 437.550
AO-85 21 Jan 00:04:49 00:06:29 11° 253° (WSW) 00:08:11 145.980
TIGRISAT 21 Jan 00:10:03 00:14:07 30° 291° (WNW) 00:18:10 435.000
LO-87 21 Jan 00:15:29 00:18:57 52° 261° (W) 00:22:28 145.935 - 145.965
EO-79 21 Jan 00:18:36 00:20:03 11° 90° (E) 00:21:31 145.935-145.965
UNISAT 6 21 Jan 00:25:49 00:29:11 20° 294° (WNW) 00:32:32 437.425
NO-84 21 Jan 00:43:19 00:45:39 22° 34° (NE) 00:48:03 435.350 FM
PRISM 21 Jan 00:43:26 00:47:20 45° 287° (WNW) 00:51:14 437.425
POLYITAN 1 21 Jan 00:51:35 00:55:18 28° 96° (E) 00:58:58 437.675
YUBILEINY 21 Jan 00:56:06 01:04:55 74° 279° (W) 01:13:45 435.215
SPROUT 21 Jan 01:06:33 01:10:48 85° 77° (ENE) 01:15:05 437.525
VELOX 1 21 Jan 01:07:06 01:11:18 46° 72° (ENE) 01:15:31 145.980
ESTCUBE 1 21 Jan 01:07:08 01:10:43 23° 265° (W) 01:14:20 437.505/2401.250
NANOSAT C BR1 21 Jan 01:07:20 01:11:18 36° 98° (E) 01:15:14 145.865
QB50P2 21 Jan 01:20:50 01:25:07 69° 101° (E) 01:29:22 145.880/145.840
DX 1 21 Jan 01:26:13 01:28:41 15° 64° (ENE) 01:31:10 434.975-435.025
O/OREOS (USA 219) 21 Jan 01:26:55 01:31:11 43° 106° (ESE) 01:35:28 437.305
AIST 2D 21 Jan 01:27:03 01:29:50 23° 289° (WNW) 01:32:36 435.315
nSIGHT-1 21 Jan 01:31:44 01:32:35 11° 3° (N) 01:33:27 .
ISS 21 Jan 01:43:21 01:44:28 11° 2° (N) 01:45:35 437.550
DUCHIFAT 1 21 Jan 01:51:01 01:55:18 81° 284° (WNW) 01:59:32 145.980
EO-79 21 Jan 01:51:56 01:56:09 58° 286° (WNW) 02:00:21 145.935-145.965
Oscar 19 21 Jan 01:55:18 01:58:29 16° 92° (E) 02:01:38 437.125/150
50 SAT 21 Jan 01:55:50 01:58:08 20° 70° (ENE) 02:00:28 437.505
AO-91 21 Jan 02:15:56 02:19:56 30° 97° (E) 02:24:15 145.960
NO-84 21 Jan 02:20:16 02:22:46 26° 229° (SW) 02:25:23 435.350 FM
POLYITAN 1 21 Jan 02:27:26 02:30:56 25° 292° (WNW) 02:34:24 437.675
NANOSAT C BR1 21 Jan 02:43:42 02:46:43 19° 294° (WNW) 02:49:43 145.865
VELOX 1 21 Jan 02:45:25 02:47:58 15° 268° (W) 02:50:31 145.980
UKube-1 21 Jan 02:48:46 02:53:01 72° 75° (ENE) 02:57:19 .
BUGSAT 1 21 Jan 02:53:26 02:57:40 72° 285° (WNW) 03:01:54 437.445
MOZHAYETS 4 21 Jan 02:58:14 03:02:01 25° 68° (ENE) 03:05:49
YUBILEINY 21 Jan 02:58:57 03:03:23 15° 301° (WNW) 03:07:51 435.215
QB50P2 21 Jan 02:59:05 03:00:18 11° 298° (WNW) 03:01:29 145.880/145.840
DX 1 21 Jan 03:00:15 03:04:26 49° 260° (W) 03:08:39 434.975-435.025
BEESAT 21 Jan 03:05:23 03:08:41 19° 64° (ENE) 03:12:00 436.000
nSIGHT-1 21 Jan 03:07:08 03:09:41 21° 23° (NNE) 03:12:13 .
O/OREOS (USA 219) 21 Jan 03:07:36 03:10:48 19° 303° (WNW) 03:14:00 437.305
Gurwin Techsat 1B 21 Jan 03:16:55 03:22:15 75° 103° (ESE) 03:27:33 435.225
ISS 21 Jan 03:19:20 03:21:55 21° 22° (NNE) 03:24:29 437.550
50 SAT 21 Jan 03:27:45 03:29:47 16° 265° (W) 03:31:48 437.505
Oscar 19 21 Jan 03:33:04 03:38:09 58° 288° (WNW) 03:43:11 437.125/150
AO-7 21 Jan 03:41:29 03:47:34 22° 93° (E) 03:53:35 .
AO-91 21 Jan 03:52:30 03:56:16 27° 289° (WNW) 04:00:21 145.960
ITUPSAT 1 21 Jan 04:01:28 04:06:12 67° 74° (ENE) 04:10:58 437.325
FALCONSAT 3 21 Jan 04:29:34 04:30:54 12° 153° (SSE) 04:32:14 435.103
MOZHAYETS 4 21 Jan 04:34:54 04:39:00 31° 264° (W) 04:43:09
CUBESAT XI-V 21 Jan 04:36:46 04:41:26 67° 75° (ENE) 04:46:05 437.345
ITAMSAT 1 21 Jan 04:39:05 04:43:38 30° 96° (E) 04:48:09 435.822/435.867
BEESAT 21 Jan 04:41:31 04:46:05 46° 261° (W) 04:50:42 436.000
nSIGHT-1 21 Jan 04:42:55 04:46:03 56° 221° (SW) 04:49:10 .
ISS 21 Jan 04:55:24 04:58:39 66° 220° (SW) 05:01:53 437.550
Gurwin Techsat 1B 21 Jan 04:58:41 05:01:32 15° 300° (WNW) 05:04:23 435.225
AO-7 21 Jan 05:32:41 05:41:04 78° 291° (WNW) 05:49:23 .
ITUPSAT 1 21 Jan 05:42:31 05:44:27 12° 270° (W) 05:46:24 437.325
SO-50 21 Jan 05:51:00 05:54:24 22° 111° (ESE) 05:57:50 436.795
KKS-1 21 Jan 06:04:04 06:08:29 87° 71° (ENE) 06:12:56 437.445
FALCONSAT 3 21 Jan 06:06:07 06:09:21 30° 168° (SSE) 06:12:36 435.103
CUBESAT XI-V 21 Jan 06:17:32 06:19:13 12° 270° (W) 06:20:55 437.345
ITAMSAT 1 21 Jan 06:18:26 06:23:02 33° 293° (WNW) 06:27:38 435.822/435.867
STARS 21 Jan 06:20:27 06:24:38 49° 72° (ENE) 06:28:51 437.465
DOVE 4 21 Jan 06:23:40 06:28:03 87° 286° (WNW) 06:32:39 437.250
XW-2D 21 Jan 06:28:19 06:29:49 12° 91° (E) 06:31:18 145.860 - 145.880
M-CUBED/EXP-1 PRIME 21 Jan 06:31:42 06:35:03 77° 106° (ESE) 06:38:17 437.505
XW-2B 21 Jan 06:44:53 06:47:34 18° 94° (E) 06:50:14 145.730 - 145.750
LilacSat-2 21 Jan 07:12:10 07:15:49 46° 99° (E) 07:19:26 437.200
XW-2C 21 Jan 07:14:28 07:18:05 44° 99° (E) 07:21:40 145.795 - 145.815
RS-15 21 Jan 07:25:53 07:33:09 18° 97° (E) 07:40:23 29.354- 29.394
AO-7 21 Jan 07:27:20 07:32:31 18° 310° (NW) 07:37:40 .
SO-50 21 Jan 07:30:23 07:34:35 39° 309° (NW) 07:38:51 436.795
HO-68 21 Jan 07:32:23 07:38:26 29° 95° (E) 07:44:27 435.675
STRAND 1 21 Jan 07:32:45 07:37:29 41° 70° (ENE) 07:42:15 437.568
SEEDS 21 Jan 07:35:45 07:37:31 12° 91° (E) 07:39:17 437.485
FALCONSAT 3 21 Jan 07:44:38 07:48:04 38° 183° (S) 07:51:31 435.103
CUTE 1.7 + AOD 2 21 Jan 07:46:41 07:50:22 29° 96° (E) 07:54:01 437.475
KAITUO 1B 21 Jan 07:49:04 07:52:46 89° 95° (E) 07:56:26 145.475/437.950
CUTE-I 21 Jan 07:50:40 07:56:01 79° 103° (ESE) 08:01:21 437.470
XW-2F 21 Jan 07:50:48 07:54:30 64° 284° (WNW) 07:58:10 145.980 - 146.000
CUBEBUG 2 21 Jan 07:58:27 08:02:34 28° 95° (E) 08:06:37 437.445
STARS 21 Jan 07:58:54 08:01:13 14° 268° (W) 08:03:34 437.465
NUDT-PHONESAT 21 Jan 08:00:06 08:03:46 69° 283° (WNW) 08:07:23 437.300
XW-2D 21 Jan 08:00:37 08:04:11 41° 287° (WNW) 08:07:42 145.860 - 145.880
UWE-3 21 Jan 08:04:32 08:07:44 18° 92° (E) 08:10:51 435.000/436.395/437.385
XW-2B 21 Jan 08:18:31 08:21:43 27° 290° (WNW) 08:24:54 145.730 - 145.750
FO-29 21 Jan 08:21:03 08:27:45 56° 72° (ENE) 08:33:41 435.910
XW-2A 21 Jan 08:22:26 08:23:28 11° 92° (E) 08:24:30 145.665 - 145.685
ZACube-1 21 Jan 08:28:28 08:31:17 16° 91° (E) 08:34:05 437.345
AO-73 21 Jan 08:35:10 08:38:03 17° 91° (E) 08:40:54 145.935
LilacSat-2 21 Jan 08:48:08 08:49:39 12° 295° (WNW) 08:51:10 437.200
XW-2C 21 Jan 08:50:17 08:51:50 12° 295° (WNW) 08:53:21 145.795 - 145.815
AAUSAT CUBESAT 2 21 Jan 08:51:00 08:54:50 37° 98° (E) 08:58:39 437.432
Oscar 11 21 Jan 09:07:53 09:11:16 22° 94° (E) 09:14:38 .
SEEDS 21 Jan 09:09:27 09:13:29 50° 286° (WNW) 09:17:29 437.485
STRAND 1 21 Jan 09:12:50 09:16:47 23° 266° (W) 09:20:47 437.568
HO-68 21 Jan 09:19:31 09:26:24 53° 292° (WNW) 09:33:17 435.675
CUTE 1.7 + AOD 2 21 Jan 09:22:45 09:26:02 22° 292° (WNW) 09:29:18 437.475
FALCONSAT 3 21 Jan 09:23:46 09:26:44 23° 198° (SSW) 09:29:41 435.103
RS-15 21 Jan 09:31:20 09:43:37 78° 117° (ESE) 09:55:46 29.354- 29.394
TIGRISAT 21 Jan 09:31:52 09:35:16 22° 67° (ENE) 09:38:44 435.000
CUTE-I 21 Jan 09:32:40 09:35:22 14° 300° (WNW) 09:38:02 437.470
CUBEBUG 2 21 Jan 09:34:58 09:39:05 30° 291° (WNW) 09:43:11 437.445
UWE-3 21 Jan 09:39:55 09:44:21 44° 288° (WNW) 09:48:43 435.000/436.395/437.385
UNISAT 6 21 Jan 09:46:29 09:50:27 34° 70° (ENE) 09:54:33 437.425
XW-2A 21 Jan 09:53:13 09:56:18 34° 287° (WNW) 09:59:20 145.665 - 145.685
ZACube-1 21 Jan 10:03:25 10:07:48 46° 287° (WNW) 10:12:05 437.345
FO-29 21 Jan 10:07:36 10:12:58 24° 265° (W) 10:17:55 435.910
AO-73 21 Jan 10:10:09 10:14:30 45° 287° (WNW) 10:18:44 145.935
BEESAT 3 21 Jan 10:13:04 10:16:24 26° 113° (ESE) 10:19:46 437.485
EO-88 21 Jan 10:26:10 10:26:51 10° 91° (E) 10:27:32 145.990 - 145.960
AAUSAT CUBESAT 2 21 Jan 10:27:18 10:29:58 17° 293° (WNW) 10:32:37 437.432
PCSat 21 Jan 10:28:42 10:33:35 36° 110° (ESE) 10:38:30 145.827
Oscar 11 21 Jan 10:43:36 10:47:24 30° 290° (WNW) 10:51:11 .
DELFI C3 21 Jan 11:01:25 11:05:21 80° 100° (E) 11:09:17 145.870
BEESAT 2 21 Jan 11:01:33 11:04:43 23° 112° (ESE) 11:07:55 435.950
YUBILEINY 21 Jan 11:07:08 11:15:41 55° 77° (ENE) 11:24:08 435.215
TIGRISAT 21 Jan 11:07:42 11:11:43 34° 263° (W) 11:15:50 435.000
UNISAT 6 21 Jan 11:23:50 11:27:14 21° 267° (W) 11:30:42 437.425
PRISM 21 Jan 11:31:22 11:35:26 73° 259° (WSW) 11:39:29 437.425
O/OREOS (USA 219) 21 Jan 11:37:10 11:41:40 77° 68° (ENE) 11:46:08 437.305
Max Valier Satellite 21 Jan 11:38:51 11:42:27 49° 286° (WNW) 11:45:59 145.860
POLYITAN 1 21 Jan 11:43:51 11:46:56 20° 67° (ENE) 11:50:03 437.675
LO-87 21 Jan 11:44:11 11:45:37 12° 92° (E) 11:47:03 145.935 - 145.965
RS-15 21 Jan 11:46:08 11:57:19 38° 322° (NW) 12:08:19 29.354- 29.394
BEESAT 3 21 Jan 11:50:25 11:53:51 27° 310° (NW) 11:57:18 437.485
EO-88 21 Jan 11:57:14 12:00:42 44° 286° (WNW) 12:04:09 145.990 - 145.960
NANOSAT C BR1 21 Jan 11:58:51 12:02:18 25° 69° (ENE) 12:05:48 145.865
AIST 2D 21 Jan 11:59:18 12:02:49 77° 259° (W) 12:06:21 435.315
PCSat 21 Jan 12:12:07 12:16:58 33° 308° (NW) 12:21:50 145.827
QB50P2 21 Jan 12:12:27 12:16:28 46° 73° (ENE) 12:20:34 145.880/145.840
AO-85 21 Jan 12:36:24 12:39:50 29° 113° (ESE) 12:43:27 145.980
BEESAT 2 21 Jan 12:38:38 12:42:15 31° 309° (NW) 12:45:54 435.950
DUCHIFAT 1 21 Jan 12:41:35 12:45:44 66° 76° (ENE) 12:49:57 145.980
EO-79 21 Jan 12:43:04 12:47:17 87° 262° (W) 12:51:33 145.935-145.965
SPROUT 21 Jan 12:53:51 12:56:20 15° 92° (E) 12:58:48 437.525
ESTCUBE 1 21 Jan 12:58:47 13:03:17 77° 102° (ESE) 13:07:45 437.505/2401.250
Gurwin Techsat 1B 21 Jan 13:00:34 13:03:27 15° 60° (ENE) 13:06:21 435.225
YUBILEINY 21 Jan 13:04:41 13:11:59 31° 276° (W) 13:19:16 435.215
Oscar 19 21 Jan 13:11:15 13:15:19 24° 65° (ENE) 13:19:26 437.125/150
AO-91 21 Jan 13:14:35 13:16:40 16° 67° (ENE) 13:18:49 145.960
LO-87 21 Jan 13:15:46 13:19:11 39° 287° (WNW) 13:22:34 145.935 - 145.965
POLYITAN 1 21 Jan 13:18:36 13:22:27 34° 263° (W) 13:26:22 437.675
NANOSAT C BR1 21 Jan 13:34:22 13:37:54 26° 264° (W) 13:41:28 145.865
BUGSAT 1 21 Jan 13:42:00 13:46:02 70° 75° (ENE) 13:50:10 437.445
QB50P2 21 Jan 13:50:10 13:52:30 14° 268° (W) 13:54:49 145.880/145.840
RS-15 21 Jan 14:06:17 14:14:44 21° 355° (N) 14:22:58 29.354- 29.394
AO-85 21 Jan 14:16:50 14:20:12 25° 313° (NW) 14:23:47 145.980
SO-50 21 Jan 14:21:50 14:25:28 21° 45° (NE) 14:29:05 436.795
SPROUT 21 Jan 14:28:19 14:32:25 45° 288° (WNW) 14:36:31 437.525
VELOX 1 21 Jan 14:33:26 14:37:50 79° 285° (WNW) 14:42:14 145.980
Gurwin Techsat 1B 21 Jan 14:37:26 14:42:44 74° 257° (WSW) 14:48:04 435.225
UKube-1 21 Jan 14:38:13 14:39:50 12° 91° (E) 14:41:28 .
ESTCUBE 1 21 Jan 14:38:23 14:39:25 11° 299° (WNW) 14:40:27 437.505/2401.250
AO-7 21 Jan 14:39:46 14:46:49 32° 57° (ENE) 14:53:52 .
50 SAT 21 Jan 14:42:10 14:44:10 16° 95° (E) 14:46:10 437.505
DX 1 21 Jan 14:48:59 14:52:43 27° 96° (E) 14:56:25 434.975-435.025
Oscar 19 21 Jan 14:49:28 14:54:22 42° 261° (W) 14:59:18 437.125/150
AO-91 21 Jan 14:50:10 14:52:58 24° 264° (W) 14:55:51 145.960
ITAMSAT 1 21 Jan 15:56:22 16:01:13 44° 70° (ENE) 16:06:07 435.822/435.867
SO-50 21 Jan 16:01:36 16:06:12 53° 242° (WSW) 16:10:51 436.795
ITUPSAT 1 21 Jan 16:03:30 16:06:44 18° 93° (E) 16:09:56 437.325
UKube-1 21 Jan 16:11:57 16:16:11 57° 287° (WNW) 16:20:25 .
50 SAT 21 Jan 16:13:25 16:15:49 20° 290° (WNW) 16:18:12 437.505
RS-15 21 Jan 16:22:28 16:32:40 31° 31° (NNE) 16:42:21 29.354- 29.394
DX 1 21 Jan 16:25:12 16:28:47 26° 292° (WNW) 16:32:22 434.975-435.025
MOZHAYETS 4 21 Jan 16:29:41 16:34:17 62° 101° (E) 16:38:49
AO-7 21 Jan 16:30:49 16:39:02 62° 256° (WSW) 16:47:21 .
CUBESAT XI-V 21 Jan 16:34:57 16:37:57 17° 92° (E) 16:40:55 437.345
BEESAT 21 Jan 16:41:51 16:46:27 44° 99° (E) 16:51:01 436.000
M-CUBED/EXP-1 PRIME 21 Jan 17:15:31 17:19:53 89° 75° (ENE) 17:24:00 437.505
DOVE 4 21 Jan 17:28:37 17:32:56 87° 81° (E) 17:37:07 437.250
NO-84 21 Jan 17:33:50 17:36:41 30° 131° (SE) 17:39:23 435.350 FM
CUTE-I 21 Jan 17:34:42 17:37:49 16° 61° (ENE) 17:40:56 437.470
ITAMSAT 1 21 Jan 17:36:56 17:40:51 22° 266° (W) 17:44:48 435.822/435.867
ITUPSAT 1 21 Jan 17:40:08 17:44:46 48° 289° (WNW) 17:49:22 437.325
LilacSat-2 21 Jan 17:53:40 17:56:40 22° 69° (ENE) 17:59:40 437.200
XW-2C 21 Jan 17:55:22 17:58:16 21° 69° (ENE) 18:01:11 145.795 - 145.815
KKS-1 21 Jan 17:56:30 17:59:24 17° 93° (E) 18:02:19 437.445
HO-68 21 Jan 18:01:40 18:06:48 22° 57° (ENE) 18:11:55 435.675
MOZHAYETS 4 21 Jan 18:08:31 18:10:53 14° 297° (WNW) 18:13:13
CUBESAT XI-V 21 Jan 18:11:08 18:15:31 45° 288° (WNW) 18:19:53 437.345
BEESAT 21 Jan 18:20:25 18:23:52 20° 296° (WNW) 18:27:18 436.000
KAITUO 1B 21 Jan 18:27:58 18:31:24 35° 72° (ENE) 18:34:51 145.475/437.950
XW-2F 21 Jan 18:30:18 18:33:59 50° 75° (ENE) 18:37:41 145.980 - 146.000
BEESAT 3 21 Jan 18:30:18 18:32:42 15° 44° (NE) 18:35:04 437.485
RS-15 21 Jan 18:35:13 18:47:01 86° 58° (ENE) 18:58:08 29.354- 29.394
NUDT-PHONESAT 21 Jan 18:37:51 18:41:24 43° 74° (ENE) 18:44:57 437.300
CUTE 1.7 + AOD 2 21 Jan 18:39:02 18:42:09 20° 68° (ENE) 18:45:18 437.475
XW-2D 21 Jan 18:40:19 18:44:08 79° 76° (ENE) 18:47:58 145.860 - 145.880
CUBEBUG 2 21 Jan 18:56:19 18:59:35 21° 66° (ENE) 19:02:58 437.445
XW-2B 21 Jan 18:57:59 19:01:47 64° 259° (W) 19:05:35 145.730 - 145.750
UWE-3 21 Jan 19:01:45 19:04:00 14° 63° (ENE) 19:06:17 435.000/436.395/437.385
NO-84 21 Jan 19:11:25 19:13:51 21° 326° (NNW) 19:16:11 435.350 FM
CUTE-I 21 Jan 19:11:58 19:17:16 69° 258° (WSW) 19:22:34 437.470
PCSat 21 Jan 19:16:53 19:21:32 28° 50° (NE) 19:26:08 145.827
BEESAT 2 21 Jan 19:19:38 19:21:54 14° 43° (NE) 19:24:08 435.950
ZACube-1 21 Jan 19:24:34 19:26:28 13° 63° (ENE) 19:28:24 437.345
LilacSat-2 21 Jan 19:27:34 19:30:48 25° 264° (W) 19:34:01 437.200
XW-2C 21 Jan 19:29:03 19:32:17 26° 264° (W) 19:35:31 145.795 - 145.815
AO-73 21 Jan 19:30:52 19:32:53 13° 63° (ENE) 19:34:54 145.935
KKS-1 21 Jan 19:31:55 19:36:08 43° 289° (WNW) 19:40:20 437.445
AAUSAT CUBESAT 2 21 Jan 19:40:37 19:43:54 23° 69° (ENE) 19:47:11 437.432
STRAND 1 21 Jan 19:45:05 19:47:51 14° 91° (E) 19:50:36 437.568
STARS 21 Jan 19:46:01 19:50:27 78° 286° (WNW) 19:54:52 437.465
HO-68 21 Jan 19:46:37 19:53:46 76° 255° (WSW) 20:00:57 435.675
SEEDS 21 Jan 19:59:42 20:03:55 84° 255° (WSW) 20:08:09 437.485
Oscar 11 21 Jan 20:02:36 20:05:24 17° 66° (ENE) 20:08:13 .
KAITUO 1B 21 Jan 20:03:19 20:05:28 15° 267° (W) 20:07:38 145.475/437.950
BEESAT 3 21 Jan 20:06:44 20:10:32 54° 243° (WSW) 20:14:17 437.485
XW-2F 21 Jan 20:07:43 20:08:21 10° 269° (W) 20:09:01 145.980 - 146.000
CUTE 1.7 + AOD 2 21 Jan 20:13:52 20:17:45 34° 263° (W) 20:21:39 437.475
NUDT-PHONESAT 21 Jan 20:14:05 20:15:26 12° 269° (W) 20:16:46 437.300
XW-2A 21 Jan 20:22:42 20:26:03 59° 76° (ENE) 20:29:26 145.665 - 145.685
CUBEBUG 2 21 Jan 20:31:55 20:35:56 36° 264° (W) 20:40:06 437.445
UWE-3 21 Jan 20:35:31 20:39:53 59° 261° (W) 20:44:23 435.000/436.395/437.385
RS-15 21 Jan 20:49:34 20:57:47 24° 260° (W) 21:05:47 29.354- 29.394
BEESAT 2 21 Jan 20:56:03 21:00:01 63° 241° (WSW) 21:03:54 435.950
ZACube-1 21 Jan 20:57:43 21:02:07 66° 259° (W) 21:06:40 437.345
PCSat 21 Jan 20:59:56 21:05:04 44° 248° (WSW) 21:10:09 145.827
AO-73 21 Jan 21:04:06 21:08:30 64° 259° (W) 21:13:01 145.935
AO-85 21 Jan 21:06:44 21:11:05 30° 49° (NE) 21:15:39 145.980
AAUSAT CUBESAT 2 21 Jan 21:15:42 21:19:13 27° 264° (W) 21:22:44 437.432
FO-29 21 Jan 21:15:54 21:20:51 44° 99° (E) 21:25:53 435.910
nSIGHT-1 21 Jan 21:18:53 21:21:58 51° 139° (SE) 21:25:03 .
